Showing default

CUBEL, 47448

Orbit data source: Space-Track

CUBEL, 47448 is a payload satellite owned by DLR (DE) in SSO that was launched on Sun, 24 Jan 2021 UTC via an FALCON 9 launch vehicle from the Air Force Eastern Test Range (AFETR). Payload-class satellites include a variety of spacecraft equipped with specific instruments for various scientific and technological missions. These include communications satellites like Starlink; space stations such as the ISS; scientific satellites like the Hubble; Earth observation satellites from companies like Planet Labs, Umbra, and HawkEye 360; GPS; miniature CubeSats for education and research; and military/defense satellites.

Loading next visibility...
Identifier
47448, 2021-006AM
Orbit
SSO
Last TLE update
19 hours ago
Origin
Manufacturer
DLR2/GOMSP
Mission
Operational Civil Technology
Bus & Motor
CUBESAT 3U, Unknown motor
Mass
4 kg wet, 4 kg dry
Launch date (UTC)
2021-01-24 (4 years ago)
Launch vehicle
FALCON 9
Launch site
Air Force Eastern Test Range (AFETR)
Object type
Payload
Rocket body
Debris
Shape & HBR
Box, Unknown HBR
Radar Cross Section
0.035 m², Small (<0.1 m²)

Expand to show TLE details & history

TLE from 19 hours ago
0 CUBEL
1 47448U 21006AM  25191.65336119  .00005427  00000-0  17780-3 0  9992
2 47448  97.2862 241.3780 0006719 333.3444  26.7452 15.32044702247293
Epoch: 2025-07-10T15:40Z
TLE epoch observation values (Epoch: 2025-07-10T15:40:50.406Z)
Latitude
-0.00001°
Longitude
77.35142°
Altitude
468.714 km
Speed
7.634 km/s
True Right ascension
16h 05m 30s
True Declination
0° 00' 00"
Sunlit
Object was in full shadow at epoch
Visualization orbit readout
Latitude
75.13963°
Longitude
-73.22556°
Altitude
485.652 km
Speed
7.627 km/s
Apparent Right ascension
10h 01m 49s
Apparent Declination
24° 36' 45"
Sunlit
Object is in daylight
Visualization observer readout
Local Sidereal Time
23:14:18
Azimuth
17.931° NNE
Elevation
-23.296°
Doppler factor
1
Orbital elements
Apogee altitude
471.256 km
Perigee altitude
462.058 km
Semi-major axis
6,844.794 km
Eccentricity
0.00067
Inclination
97.2862°
RAAN
241.378°
Arg. of periapsis
333.3444°
True anomaly
Unknown
Mean anomaly
26.7452°
Eccentric anomaly
Unknown
Mean motion
3.83268 °/min
Orbital period
93.93 mins
BSTAR
0.0001778
Loading maneuver chart data...
Loading SW <> Apogee altitude chart data...

CUBEL Visibility forecast

Observer location: undefined°, undefined°

Span
Click to sort rows by Start time (UTC) header in descending order
Start Az.
Max El. time (UTC)
Max El. Az.
Max El.
End time (UTC)
End Az.
6 mins2025-07-11 15:45:21.559Z31.344° NE2025-07-11 15:48:21.559Z99.025° ESE30.589°2025-07-11 15:51:21.559Z165.091° S
5 mins2025-07-12 03:52:21.559Z207.385° SW2025-07-12 03:54:21.559Z265.137° W29.538°2025-07-12 03:57:21.559Z328.648° NNW
|